Regional Weather Roundup
Issued by NWS

Home | Current Version | Previous Version | Text Only | Print | Product List | Glossary On
Versions: 1 2 3 4 5 6 7 8 9 10 11 12 13 14 15 16 17 18 19 20 21 22 23 24 25 26 27 28 29 30 31 32 33 34 35 36 37 38 39 40 41 42 43 44 45 46 47 48 49 50
000
ASUS45 KABQ 270110
RWRNM
NEW MEXICO REGIONAL WEATHER ROUNDUP
NATIONAL WEATHER SERVICE ALBUQUERQUE NM
700 PM MDT THU APR 26 2018

NOTE: "FAIR" MEANS FEW OR NO CLOUDS BELOW 12,000 FEET AGL WITH NO
       SIGNIFICANT WEATHER OR OBSTRUCTIONS TO VISION.

      THIS PRODUCT IS RELEASED AS TWO VERSIONS.  ONE VERSION NEAR
      THE TOP OF THE HOUR CONTAINING PRELIMINARY DATA FROM ALBUQUERQUE
      AND OTHER STATIONS.  A FINAL VERSION WITH ADDITIONAL DATA IS
      ISSUED ABOUT 10 MINUTES AFTER THE HOUR.

NMZ501-503-504-510>518-270200-
NORTHWEST PLATEAU/NORTHCENTRAL MOUNTAINS

CITY           SKY/WX    TMP DP  RH WIND       PRES   REMARKS
FARMINGTON     FAIR      75   5   6 W20G26    30.00S
LOS ALAMOS     FAIR      67  13  12 SE13      30.17R
SANTA FE       FAIR      66  23  19 SE24G30   30.12R
TAOS           FAIR      65   4   9 NE13      30.17S
ANGEL FIRE     FAIR      51  25  35 E13       30.28R

$$
NMZ402-403-502-505>509-270200-
WESTCENTRAL MOUNTAINS/SOUTHWEST MOUNTAINS

CITY           SKY/WX    TMP DP  RH WIND       PRES   REMARKS
GALLUP         FAIR      73  -9   4 NE16      30.10S
GRANTS         FAIR      71   0   6 N14       30.14R
SILVER CITY    FAIR      77  16  10 W9        30.02S

$$
NMZ407-409-411-412-270200-
SOUTHERN DESERTS

CITY           SKY/WX    TMP DP  RH WIND       PRES   REMARKS
DEMING         FAIR      83  23  11 SW10      29.96R
LAS CRUCES     FAIR      82  22  10 SE6       29.99S
HOLLOMAN AFB   FAIR      81  22  11 SW10      29.97R
ALAMOGORDO     FAIR      79  21  11 E12G17    29.97R
T OR C         FAIR      83  19   9 S10       29.97R

$$
NMZ519>523-270200-
CENTRAL VALLEYS/CENTRAL HIGHLANDS

CITY           SKY/WX    TMP DP  RH WIND       PRES   REMARKS
ALBUQUERQUE    FAIR      74  20  13 E25G32    30.04R
DOUBLE EAGLE   CLEAR     77   1   5 NE7       30.05S
MORIARTY ARPT  FAIR      66  22  19 E21G28    30.18R
CLINES CORNERS FAIR      58  23  26 E23G32    30.22R
BELEN          FAIR      78   4   6 NE10      30.02S
SOCORRO        FAIR      80  10   7 NE8       29.99R

$$
NMZ524>526-539-540-270200-
SOUTHCENTRAL MOUNTAINS

CITY           SKY/WX    TMP DP  RH WIND       PRES   REMARKS
RUIDOSO        NOT AVBL

$$
NMZ527>531-270200-
NORTHEAST HIGHLANDS/NORTHEAST PLAINS

CITY           SKY/WX    TMP DP  RH WIND       PRES   REMARKS
LAS VEGAS      FAIR      53  25  33 NE18G25   30.24R
RATON          FAIR      52  22  30 NE24      30.23R
CLAYTON        FAIR      55  24  30 N18       30.20R

$$
NMZ532>537-270200-
EASTCENTRAL PLAINS

CITY           SKY/WX    TMP DP  RH WIND       PRES   REMARKS
SANTA ROSA     FAIR      65  24  21 NE17G28   30.15R
TUCUMCARI      FAIR      65  26  23 NE24G32   30.13R
CANNON AFB     FAIR      64  26  24 NE23G33   30.14R
CLOVIS AIRPORT FAIR      63  27  25 NE25G32   30.13R

$$
NMZ028-029-538-270200-
SOUTHEAST PLAINS

CITY           SKY/WX    TMP DP  RH WIND       PRES   REMARKS
ROSWELL        FAIR      73  26  17 NE18      30.06R
ARTESIA        FAIR      73  27  17 NE21G26   30.05R
CARLSBAD       FAIR      76  26  15 N21G32    30.01R
HOBBS          FAIR      72  25  17 NE25G37   30.04R


$$



USA.gov is the U.S. government's official web portal to all federal, state and local government web resources and services.